Regional Weather Roundup
Issued by NWS Midland/Odessa, TX

Home | Current Version | Previous Version | Text Only | Print | Product List | Glossary On
Versions: 1 2 3 4 5 6 7 8 9 10 11 12 13 14 15 16 17 18 19 20 21 22 23 24 25 26 27 28 29 30 31 32 33 34 35 36 37 38 39 40 41 42 43 44 45 46 47 48 49 50
000
ASUS44 KMAF 061410
RWRMAF
MIDLAND AREA WEATHER ROUNDUP
NATIONAL WEATHER SERVICE MIDLAND TX
900 AM CDT WED MAY 06 2015

...IN SOUTHWEST TEXAS AND SOUTHEAST NEW MEXICO...

CITY           SKY/WX    TMP DP  RH WIND       PRES   REMARKS
ALPINE         SUNNY     64  38  39 CALM      30.05S
ANDREWS        CLOUDY    66  63  88 SW13G24   29.92S
ARTESIA        SUNNY     64  45  48 MISG      29.92R
BIG SPRING     PTSUNNY   72  67  83 S14       29.94R
CARLSBAD       SUNNY     69  44  40 SW12      29.89R
DRYDEN           N/A     74  68  81 SE12      29.89S
FORT STOCKTON  SUNNY     68  62  81 S13       29.92S
GUAD PASS      SUNNY     56  39  53 SW16      30.00S
HOBBS          PTSUNNY   63  63 100 S14       29.93R
MARFA          SUNNY     63  43  48 NW3       30.04R
MIDLAND AIRPK  PTSUNNY   71  64  78 S12       29.93R
MIDLAND INTL   PTSUNNY   71  64  78 S17G23    29.92R HAZE
ODESSA         CLOUDY    70  63  78 S14       29.93R HAZE
PECOS          SUNNY     62  41  46 SW5       29.92S
PRESIDIO       FAIR      71  39  32 N7        29.94R
SEMINOLE       CLOUDY    65  62  89 SW18G24   29.93S
SNYDER         PTSUNNY   67  65  94 S14       29.92R
WINK           CLOUDY    63  60  90 S7        29.91R FOG
$$
...OTHER STATIONS IN TEXAS...

CITY           SKY/WX    TMP DP  RH WIND       PRES   REMARKS
ABILENE        PTSUNNY   73  66  78 S13       29.92S
AMARILLO       SUNNY     59  50  72 S17       29.83R
AUSTIN         CLOUDY    72  70  93 SE8       29.96R
BROWNSVILLE    PTSUNNY   79  72  79 SE21      29.90R
CORPUS CHRISTI PTSUNNY   77  71  82 SE18      29.91S
DALLAS FTW     CLOUDY    70  67  90 S16       29.95R
DEL RIO        CLOUDY    72  70  93 SE8       29.87S FOG
EL PASO        MOSUNNY   63  41  44 S8        29.95R
HOUSTON INT    CLOUDY    73  70  90 SE12      29.98S
LUBBOCK        PTSUNNY   65  60  84 SW14      29.90R
SAN ANGELO     MOSUNNY   72  65  78 S7        29.92R
SAN ANTONIO    CLOUDY    74  69  85 SE12      29.94R
WACO           CLOUDY    70  66  87 S10       29.97R
WICHITA FALLS  NOT AVBL
$$
...OTHER LOCATIONS IN NEW MEXICO...

CITY           SKY/WX    TMP DP  RH WIND       PRES   REMARKS
ALAMAGORDO     MOSUNNY   59  39  47 SE7       29.95S
ALBUQUERQUE    PTSUNNY   54  45  71 S6        29.96R
CANNON AFB     NOT AVBL
CLOVIS         MOSUNNY   59  46  63 SW17      29.87S
HOLLOMAN AFB   MOSUNNY   62  39  43 S8        29.93S
ROSWELL        SUNNY     58  49  72 CALM      29.90R
RUIDOSO        SUNNY     50  36  57 E3        30.04R
SANTA FE       CLOUDY    50  43  77 SW14      29.94S
TRUTH OR CONSE PTSUNNY   59  38  45 SW6       29.96R
TUCUMCARI      SUNNY     63  45  51 W25G37    29.78F
$$


USA.gov is the U.S. government's official web portal to all federal, state and local government web resources and services.